Location: Boiro
(42.6475°N, 8.8834°W)
Time: 14:37:09
(UTC+01:00)

Vanguard 2 - Pass Details

Date: 30 November 2021
Orbit: 553 x 2936 km, 32.9° (Epoch: 23 January)

Event Time Altitude Azimuth Distance (km) Brightness Sun altitude
Rises 22:18:03 0° 267° (W) 5,055 12.4 -46.1°
Reaches altitude 10° 22:22:20 10° 252° (WSW) 4,456 11.8 -46.9°
Maximum altitude 22:30:35 20° 211° (SSW) 4,296 11.3 -48.3°
Enters shadow 22:36:14 16° 187° (S) 4,882 11.4 -49.3°
